Time,TemperatureF,DewpointF,PressureIn,WindDirection,WindDirectionDegrees,WindSpeedMPH,WindSpeedGustMPH,Humidity,HourlyPrecipIn,Conditions,Clouds,dailyrainin,SoftwareType,DateUTC
2013-09-24 00:14:00,76.0,76.0,29.99,West,266,0.0,0.0,100,0.00,,,0.80,,2013-09-24 04:14:00,
2013-09-24 00:24:00,76.0,76.0,29.99,West,266,0.0,0.0,100,0.00,,,0.80,,2013-09-24 04:24:00,
2013-09-24 00:54:00,76.0,76.0,29.99,West,266,0.0,0.0,100,0.00,,,0.77,,2013-09-24 04:54:00,
2013-09-24 01:23:00,76.0,76.0,29.97,West,266,0.0,0.0,100,0.01,,,0.77,,2013-09-24 05:23:00,
2013-09-24 01:53:00,76.0,76.0,29.96,West,266,0.0,0.0,100,0.04,,,0.77,,2013-09-24 05:53:00,
2013-09-24 02:22:00,76.0,76.0,29.95,West,266,0.0,0.0,100,0.03,,,0.77,,2013-09-24 06:22:00,
2013-09-24 02:52:00,75.0,75.0,29.95,West,266,0.0,0.0,100,0.00,,,0.77,,2013-09-24 06:52:00,
2013-09-24 03:22:00,75.0,75.0,29.94,West,266,0.0,0.0,100,0.00,,,0.77,,2013-09-24 07:22:00,
2013-09-24 03:52:00,75.0,75.0,29.95,West,266,0.0,0.0,100,0.00,,,0.77,,2013-09-24 07:52:00,
2013-09-24 04:23:00,75.0,75.0,29.94,West,266,0.0,0.0,100,0.00,,,0.77,,2013-09-24 08:23:00,
2013-09-24 04:52:00,75.0,75.0,29.94,West,266,0.0,0.0,100,0.00,,,0.77,,2013-09-24 08:52:00,
2013-09-24 05:21:00,75.0,75.0,29.95,West,266,0.0,0.0,100,0.00,,,0.77,,2013-09-24 09:21:00,
2013-09-24 05:54:00,75.0,75.0,29.93,West,266,0.0,0.0,100,0.00,,,0.77,,2013-09-24 09:54:00,
2013-09-24 06:23:00,75.0,75.0,29.93,West,266,0.0,0.0,100,0.01,,,0.77,,2013-09-24 10:23:00,
2013-09-24 06:53:00,75.0,75.0,29.93,West,266,0.0,0.0,100,0.01,,,0.77,,2013-09-24 10:53:00,
2013-09-24 07:22:00,75.0,75.0,29.92,West,266,0.0,0.0,100,0.00,,,0.77,,2013-09-24 11:22:00,
2013-09-24 07:52:00,75.0,75.0,29.94,West,266,0.0,0.0,100,0.00,,,0.77,,2013-09-24 11:52:00,
2013-09-24 08:22:00,75.0,75.0,29.95,West,266,0.0,0.0,100,0.02,,,0.77,,2013-09-24 12:22:00,
2013-09-24 08:52:00,75.0,75.0,29.96,West,266,0.0,0.0,100,0.03,,,0.77,,2013-09-24 12:52:00,
2013-09-24 09:22:00,76.0,76.0,29.95,West,266,0.0,0.0,100,0.01,,,0.77,,2013-09-24 13:22:00,
2013-09-24 09:52:00,76.0,76.0,29.96,West,266,0.0,0.0,100,0.01,,,0.77,,2013-09-24 13:52:00,
2013-09-24 10:21:00,76.0,76.0,29.96,West,266,0.0,0.0,100,0.02,,,0.77,,2013-09-24 14:21:00,
2013-09-24 10:52:00,76.0,76.0,29.95,West,266,0.0,0.0,100,0.04,,,0.77,,2013-09-24 14:52:00,
2013-09-24 11:22:00,76.0,76.0,29.94,West,266,0.0,0.0,100,0.06,,,0.77,,2013-09-24 15:22:00,
2013-09-24 11:54:00,77.0,77.0,29.93,West,266,0.0,0.0,100,0.04,,,0.77,,2013-09-24 15:54:00,
2013-09-24 12:23:00,77.0,77.0,29.92,West,266,0.0,0.0,100,0.02,,,0.77,,2013-09-24 16:23:00,
2013-09-24 12:53:00,78.0,78.0,29.93,West,266,0.0,0.0,100,0.01,,,0.77,,2013-09-24 16:53:00,
2013-09-24 13:23:00,79.0,79.0,29.92,West,266,0.0,0.0,100,0.00,,,0.77,,2013-09-24 17:23:00,
2013-09-24 13:54:00,80.0,79.0,29.92,West,266,0.0,0.0,97,0.00,,,0.77,,2013-09-24 17:54:00,
2013-09-24 14:22:00,81.0,78.0,29.91,West,266,0.0,0.0,92,0.00,,,0.77,,2013-09-24 18:22:00,
2013-09-24 14:52:00,80.0,77.0,29.90,West,266,0.0,0.0,92,0.00,,,0.77,,2013-09-24 18:52:00,
2013-09-24 15:22:00,80.0,78.0,29.90,SW,222,0.0,0.0,93,0.00,,,0.77,,2013-09-24 19:22:00,
2013-09-24 15:52:00,79.0,78.0,29.89,SW,222,0.0,0.0,97,0.00,,,0.77,,2013-09-24 19:52:00,
2013-09-24 16:22:00,78.0,78.0,29.89,SW,222,0.0,0.0,100,0.00,,,0.77,,2013-09-24 20:22:00,
2013-09-24 16:52:00,78.0,78.0,29.90,SW,222,0.0,0.0,100,0.00,,,0.77,,2013-09-24 20:52:00,
2013-09-24 17:22:00,78.0,78.0,29.88,North,359,0.0,0.0,100,0.00,,,0.77,,2013-09-24 21:22:00,
2013-09-24 17:54:00,78.0,78.0,29.87,North,359,0.0,0.0,100,0.00,,,0.77,,2013-09-24 21:54:00,
2013-09-24 18:23:00,78.0,78.0,29.87,North,359,0.0,0.0,100,0.00,,,0.77,,2013-09-24 22:23:00,
2013-09-24 18:54:00,77.0,77.0,29.88,North,359,0.0,0.0,100,0.00,,,0.77,,2013-09-24 22:54:00,
2013-09-24 19:22:00,77.0,77.0,29.88,North,359,0.0,0.0,100,0.00,,,0.77,,2013-09-24 23:22:00,
2013-09-24 19:53:00,76.0,76.0,29.89,North,359,0.0,0.0,100,0.00,,,0.77,,2013-09-24 23:53:00,
2013-09-24 20:22:00,76.0,76.0,29.90,North,359,0.0,0.0,100,0.00,,,0.77,,2013-09-25 00:22:00,
2013-09-24 20:52:00,76.0,76.0,29.91,North,359,0.0,0.0,100,0.00,,,0.77,,2013-09-25 00:52:00,
2013-09-24 21:21:00,76.0,76.0,29.91,SSW,205,4.0,8.0,100,0.00,,,0.77,,2013-09-25 01:21:00,
2013-09-24 21:52:00,76.0,76.0,29.91,SSW,193,0.0,0.0,100,0.00,,,0.77,,2013-09-25 01:52:00,
2013-09-24 22:22:00,75.0,75.0,29.90,North,359,0.0,0.0,100,0.00,,,0.77,,2013-09-25 02:22:00,
2013-09-24 22:52:00,75.0,75.0,29.89,North,359,0.0,0.0,100,0.00,,,0.77,,2013-09-25 02:52:00,
2013-09-24 23:23:00,75.0,75.0,29.88,South,186,0.0,11.0,100,0.00,,,0.77,,2013-09-25 03:23:00,
2013-09-24 23:55:00,75.0,75.0,29.88,SW,215,0.0,0.0,100,0.00,,,0.77,,2013-09-25 03:55:00,